Year,Month,Day,Hour,Minute,Value (Times are PST for windspeed in km/hr)
2008,01,02,00,00,0.00
2008,01,02,00,01,0.10
2008,01,02,00,02,0.00
2008,01,02,00,03,0.10
2008,01,02,00,04,0.20
2008,01,02,00,05,0.00
2008,01,02,00,06,0.10
2008,01,02,00,07,1.70
2008,01,02,00,08,1.30
2008,01,02,00,09,0.00
2008,01,02,00,10,0.60
2008,01,02,00,11,2.70
2008,01,02,00,12,3.20
2008,01,02,00,13,0.80
2008,01,02,00,14,0.40
2008,01,02,00,15,0.20
2008,01,02,00,16,0.20
2008,01,02,00,17,0.40
2008,01,02,00,18,0.00
2008,01,02,00,19,0.00
2008,01,02,00,20,0.00
2008,01,02,00,21,0.80
2008,01,02,00,22,0.30
2008,01,02,00,23,1.80
2008,01,02,00,24,1.00
2008,01,02,00,25,0.00
2008,01,02,00,26,1.30
2008,01,02,00,27,1.90
2008,01,02,00,28,1.90
2008,01,02,00,29,0.80
2008,01,02,00,30,0.90
2008,01,02,00,31,0.80
2008,01,02,00,32,0.20
2008,01,02,00,33,0.40
2008,01,02,00,34,0.90
2008,01,02,00,35,1.10
2008,01,02,00,36,0.60
2008,01,02,00,37,0.80
2008,01,02,00,38,0.30
2008,01,02,00,39,0.20
2008,01,02,00,40,0.10
2008,01,02,00,41,0.90
2008,01,02,00,42,0.80
2008,01,02,00,43,1.00
2008,01,02,00,44,0.90
2008,01,02,00,45,1.40
2008,01,02,00,46,0.20
2008,01,02,00,47,0.60
2008,01,02,00,48,0.30
2008,01,02,00,49,0.00
2008,01,02,00,50,0.10
2008,01,02,00,51,0.00
2008,01,02,00,52,0.00
2008,01,02,00,53,1.50
2008,01,02,00,54,2.10
2008,01,02,00,55,0.30
2008,01,02,00,56,0.20
2008,01,02,00,57,0.10
2008,01,02,00,58,1.20
2008,01,02,00,59,2.90
2008,01,02,01,00,2.30
2008,01,02,01,01,2.60
2008,01,02,01,02,2.60
2008,01,02,01,03,1.60
2008,01,02,01,04,2.30
2008,01,02,01,05,1.90
2008,01,02,01,06,1.70
2008,01,02,01,07,1.00
2008,01,02,01,08,2.30
2008,01,02,01,09,1.20
2008,01,02,01,10,1.20
2008,01,02,01,11,1.00
2008,01,02,01,12,0.90
2008,01,02,01,13,0.50
2008,01,02,01,14,0.60
2008,01,02,01,15,0.90
2008,01,02,01,16,0.00
2008,01,02,01,17,0.20
2008,01,02,01,18,0.70
2008,01,02,01,19,0.20
2008,01,02,01,20,0.00
2008,01,02,01,21,0.00
2008,01,02,01,22,1.10
2008,01,02,01,23,0.40
2008,01,02,01,24,0.30
2008,01,02,01,25,0.50
2008,01,02,01,26,0.00
2008,01,02,01,27,0.60
2008,01,02,01,28,0.10
2008,01,02,01,29,0.60
2008,01,02,01,30,1.20
2008,01,02,01,31,0.60
2008,01,02,01,32,0.00
2008,01,02,01,33,0.00
2008,01,02,01,34,0.10
2008,01,02,01,35,0.10
2008,01,02,01,36,0.00
2008,01,02,01,37,0.00
2008,01,02,01,38,0.00
2008,01,02,01,39,0.10
2008,01,02,01,40,1.70
2008,01,02,01,41,2.10
2008,01,02,01,42,1.90
2008,01,02,01,43,1.80
2008,01,02,01,44,1.70
2008,01,02,01,45,2.00
2008,01,02,01,46,1.90
2008,01,02,01,47,2.20
2008,01,02,01,48,1.50
2008,01,02,01,49,0.10
2008,01,02,01,50,1.40
2008,01,02,01,51,1.00
2008,01,02,01,52,0.20
2008,01,02,01,53,0.90
2008,01,02,01,54,1.80
2008,01,02,01,55,2.10
2008,01,02,01,56,1.40
2008,01,02,01,57,0.90
2008,01,02,01,58,0.50
2008,01,02,01,59,1.80
2008,01,02,02,00,2.70
2008,01,02,02,01,0.70
2008,01,02,02,02,0.10
2008,01,02,02,03,0.40
2008,01,02,02,04,1.50
2008,01,02,02,05,1.30
2008,01,02,02,06,0.20
2008,01,02,02,07,0.20
2008,01,02,02,08,0.50
2008,01,02,02,09,0.30
2008,01,02,02,10,0.70
2008,01,02,02,11,1.10
2008,01,02,02,12,0.60
2008,01,02,02,13,0.10
2008,01,02,02,14,0.30
2008,01,02,02,15,0.60
2008,01,02,02,16,0.50
2008,01,02,02,17,0.80
2008,01,02,02,18,1.50
2008,01,02,02,19,0.60
2008,01,02,02,20,0.40
2008,01,02,02,21,0.50
2008,01,02,02,22,0.10
2008,01,02,02,23,0.10
2008,01,02,02,24,0.20
2008,01,02,02,25,0.20
2008,01,02,02,26,0.10
2008,01,02,02,27,0.00
2008,01,02,02,28,0.10
2008,01,02,02,29,0.00
2008,01,02,02,30,0.00
2008,01,02,02,31,0.10
2008,01,02,02,32,0.10
2008,01,02,02,33,0.80
2008,01,02,02,34,1.80
2008,01,02,02,35,0.40
2008,01,02,02,36,0.20
2008,01,02,02,37,0.00
2008,01,02,02,38,0.00
2008,01,02,02,39,1.00
2008,01,02,02,40,0.30
2008,01,02,02,41,1.50
2008,01,02,02,42,1.60
2008,01,02,02,43,1.30
2008,01,02,02,44,0.50
2008,01,02,02,45,0.00
2008,01,02,02,46,0.00
2008,01,02,02,47,0.00
2008,01,02,02,48,0.00
2008,01,02,02,49,0.00
2008,01,02,02,50,0.00
2008,01,02,02,51,0.00
2008,01,02,02,52,0.00
2008,01,02,02,53,0.10
2008,01,02,02,54,2.30
2008,01,02,02,55,2.00
2008,01,02,02,56,1.20
2008,01,02,02,57,2.20
2008,01,02,02,58,5.30
2008,01,02,02,59,2.80
2008,01,02,03,00,5.10
2008,01,02,03,01,6.60
2008,01,02,03,02,3.60
2008,01,02,03,03,1.10
2008,01,02,03,04,1.40
2008,01,02,03,05,2.00
2008,01,02,03,06,7.00
2008,01,02,03,07,7.50
2008,01,02,03,08,3.60
2008,01,02,03,09,5.90
2008,01,02,03,10,5.70
2008,01,02,03,11,6.00
2008,01,02,03,12,5.70
2008,01,02,03,13,12.10
2008,01,02,03,14,8.30
2008,01,02,03,15,15.00
2008,01,02,03,16,7.90
2008,01,02,03,17,10.80
2008,01,02,03,18,8.00
2008,01,02,03,19,5.30
2008,01,02,03,20,8.70
2008,01,02,03,21,7.80
2008,01,02,03,22,2.60
2008,01,02,03,23,2.70
2008,01,02,03,24,6.40
2008,01,02,03,25,4.40
2008,01,02,03,26,6.30
2008,01,02,03,27,3.70
2008,01,02,03,28,8.70
2008,01,02,03,29,5.40
2008,01,02,03,30,6.00
2008,01,02,03,31,4.90
2008,01,02,03,32,8.10
2008,01,02,03,33,7.60
2008,01,02,03,34,10.30
2008,01,02,03,35,6.20
2008,01,02,03,36,3.30
2008,01,02,03,37,3.70
2008,01,02,03,38,1.80
2008,01,02,03,39,2.90
2008,01,02,03,40,2.70
2008,01,02,03,41,6.10
2008,01,02,03,42,4.70
2008,01,02,03,43,8.10
2008,01,02,03,44,6.60
2008,01,02,03,45,4.20
2008,01,02,03,46,6.00
2008,01,02,03,47,5.30
2008,01,02,03,48,4.10
2008,01,02,03,49,3.10
2008,01,02,03,50,5.90
2008,01,02,03,51,1.60
2008,01,02,03,52,1.40
2008,01,02,03,53,4.90
2008,01,02,03,54,3.70
2008,01,02,03,55,3.10
2008,01,02,03,56,3.50
2008,01,02,03,57,5.60
2008,01,02,03,58,5.30
2008,01,02,03,59,4.90
2008,01,02,04,00,8.90
2008,01,02,04,01,5.50
2008,01,02,04,02,4.10
2008,01,02,04,03,4.60
2008,01,02,04,04,5.20
2008,01,02,04,05,3.10
2008,01,02,04,06,2.20
2008,01,02,04,07,5.30
2008,01,02,04,08,2.30
2008,01,02,04,09,9.20
2008,01,02,04,10,7.20
2008,01,02,04,11,7.70
2008,01,02,04,12,7.10
2008,01,02,04,13,8.30
2008,01,02,04,14,7.70
2008,01,02,04,15,1.90
2008,01,02,04,16,2.70
2008,01,02,04,17,5.30
2008,01,02,04,18,3.40
2008,01,02,04,19,1.80
2008,01,02,04,20,4.10
2008,01,02,04,21,2.40
2008,01,02,04,22,4.60
2008,01,02,04,23,3.90
2008,01,02,04,24,11.30
2008,01,02,04,25,5.20
2008,01,02,04,26,6.20
2008,01,02,04,27,10.10
2008,01,02,04,28,6.20
2008,01,02,04,29,10.10
2008,01,02,04,30,10.90
2008,01,02,04,31,9.60
2008,01,02,04,32,12.20
2008,01,02,04,33,10.00
2008,01,02,04,34,12.60
2008,01,02,04,35,13.40
2008,01,02,04,36,13.20
2008,01,02,04,37,13.40
2008,01,02,04,38,13.00
2008,01,02,04,39,14.00
2008,01,02,04,40,6.20
2008,01,02,04,41,14.80
2008,01,02,04,42,7.80
2008,01,02,04,43,14.10
2008,01,02,04,44,9.40
2008,01,02,04,45,7.60
2008,01,02,04,46,14.20
2008,01,02,04,47,9.90
2008,01,02,04,48,17.70
2008,01,02,04,49,16.50
2008,01,02,04,50,9.30
2008,01,02,04,51,11.30
2008,01,02,04,52,10.50
2008,01,02,04,53,12.80
2008,01,02,04,54,6.70
2008,01,02,04,55,4.70
2008,01,02,04,56,7.70
2008,01,02,04,57,7.40
2008,01,02,04,58,7.10
2008,01,02,04,59,13.60
2008,01,02,05,00,7.60
2008,01,02,05,01,6.00
2008,01,02,05,02,5.40
2008,01,02,05,03,7.40
2008,01,02,05,04,4.60
2008,01,02,05,05,9.00
2008,01,02,05,06,9.90
2008,01,02,05,07,13.30
2008,01,02,05,08,5.80
2008,01,02,05,09,4.50
2008,01,02,05,10,3.50
2008,01,02,05,11,4.20
2008,01,02,05,12,7.70
2008,01,02,05,13,6.20
2008,01,02,05,14,8.50
2008,01,02,05,15,5.40
2008,01,02,05,16,3.90
2008,01,02,05,17,5.10
2008,01,02,05,18,3.70
2008,01,02,05,19,11.30
2008,01,02,05,20,5.70
2008,01,02,05,21,1.10
2008,01,02,05,22,1.00
2008,01,02,05,23,2.50
2008,01,02,05,24,5.20
2008,01,02,05,25,3.00
2008,01,02,05,26,0.20
2008,01,02,05,27,1.90
2008,01,02,05,28,1.10
2008,01,02,05,29,2.30
2008,01,02,05,30,1.80
2008,01,02,05,31,2.00
2008,01,02,05,32,1.40
2008,01,02,05,33,2.60
2008,01,02,05,34,3.20
2008,01,02,05,35,3.70
2008,01,02,05,36,1.30
2008,01,02,05,37,5.30
2008,01,02,05,38,5.50
2008,01,02,05,39,2.20
2008,01,02,05,40,3.90
2008,01,02,05,41,2.90
2008,01,02,05,42,2.10
2008,01,02,05,43,1.50
2008,01,02,05,44,1.90
2008,01,02,05,45,1.70
2008,01,02,05,46,1.30
2008,01,02,05,47,0.60
2008,01,02,05,48,0.10
2008,01,02,05,49,7.00
2008,01,02,05,50,6.70
2008,01,02,05,51,7.10
2008,01,02,05,52,6.30
2008,01,02,05,53,4.10
2008,01,02,05,54,8.60
2008,01,02,05,55,2.10
2008,01,02,05,56,4.20
2008,01,02,05,57,6.50
2008,01,02,05,58,11.00
2008,01,02,05,59,7.70
2008,01,02,06,00,9.70
2008,01,02,06,01,7.10
2008,01,02,06,02,2.30
2008,01,02,06,03,10.10
2008,01,02,06,04,9.50
2008,01,02,06,05,7.40
2008,01,02,06,06,7.40
2008,01,02,06,07,6.00
2008,01,02,06,08,8.70
2008,01,02,06,09,6.70
2008,01,02,06,10,9.80
2008,01,02,06,11,13.30
2008,01,02,06,12,14.80
2008,01,02,06,13,13.60
2008,01,02,06,14,6.30
2008,01,02,06,15,13.40
2008,01,02,06,16,16.20
2008,01,02,06,17,17.80
2008,01,02,06,18,9.20
2008,01,02,06,19,7.50
2008,01,02,06,20,6.50
2008,01,02,06,21,12.00
2008,01,02,06,22,5.30
2008,01,02,06,23,6.80
2008,01,02,06,24,9.70
2008,01,02,06,25,12.50
2008,01,02,06,26,12.50
2008,01,02,06,27,17.80
2008,01,02,06,28,16.10
2008,01,02,06,29,9.80
2008,01,02,06,30,20.80
2008,01,02,06,31,17.40
2008,01,02,06,32,7.40
2008,01,02,06,33,5.60
2008,01,02,06,34,6.20
2008,01,02,06,35,5.00
2008,01,02,06,36,4.30
2008,01,02,06,37,3.00
2008,01,02,06,38,0.90
2008,01,02,06,39,1.40
2008,01,02,06,40,1.40
2008,01,02,06,41,1.90
2008,01,02,06,42,2.90
2008,01,02,06,43,4.30
2008,01,02,06,44,1.40
2008,01,02,06,45,3.10
2008,01,02,06,46,2.90
2008,01,02,06,47,2.10
2008,01,02,06,48,1.10
2008,01,02,06,49,1.00
2008,01,02,06,50,1.90
2008,01,02,06,51,0.10
2008,01,02,06,52,0.60
2008,01,02,06,53,6.40
2008,01,02,06,54,4.10
2008,01,02,06,55,2.90
2008,01,02,06,56,3.40
2008,01,02,06,57,3.30
2008,01,02,06,58,2.40
2008,01,02,06,59,2.50
2008,01,02,07,00,0.80
2008,01,02,07,01,0.90
2008,01,02,07,02,0.50
2008,01,02,07,03,1.20
2008,01,02,07,04,2.20
2008,01,02,07,05,3.00
2008,01,02,07,06,3.90
2008,01,02,07,07,1.10
2008,01,02,07,08,2.60
2008,01,02,07,09,4.40
2008,01,02,07,10,2.10
2008,01,02,07,11,2.70
2008,01,02,07,12,3.50
2008,01,02,07,13,4.90
2008,01,02,07,14,1.00
2008,01,02,07,15,0.10
2008,01,02,07,16,0.30
2008,01,02,07,17,5.50
2008,01,02,07,18,4.40
2008,01,02,07,19,8.40
2008,01,02,07,20,3.20
2008,01,02,07,21,1.80
2008,01,02,07,22,0.60
2008,01,02,07,23,2.40
2008,01,02,07,24,3.00
2008,01,02,07,25,6.70
2008,01,02,07,26,6.80
2008,01,02,07,27,5.90
2008,01,02,07,28,10.10
2008,01,02,07,29,4.20
2008,01,02,07,30,3.10
2008,01,02,07,31,2.80
2008,01,02,07,32,5.00
2008,01,02,07,33,0.30
2008,01,02,07,34,1.40
2008,01,02,07,35,7.30
2008,01,02,07,36,3.50
2008,01,02,07,37,2.90
2008,01,02,07,38,2.30
2008,01,02,07,39,6.60
2008,01,02,07,40,6.90
2008,01,02,07,41,7.80
2008,01,02,07,42,3.80
2008,01,02,07,43,6.80
2008,01,02,07,44,8.00
2008,01,02,07,45,6.40
2008,01,02,07,46,10.00
2008,01,02,07,47,8.40
2008,01,02,07,48,5.40
2008,01,02,07,49,7.80
2008,01,02,07,50,7.20
2008,01,02,07,51,5.60
2008,01,02,07,52,5.90
2008,01,02,07,53,3.70
2008,01,02,07,54,7.10
2008,01,02,07,55,2.70
2008,01,02,07,56,7.70
2008,01,02,07,57,6.70
2008,01,02,07,58,4.40
2008,01,02,07,59,5.20
2008,01,02,08,00,4.30
2008,01,02,08,01,4.60
2008,01,02,08,02,3.30
2008,01,02,08,03,6.80
2008,01,02,08,04,10.10
2008,01,02,08,05,8.70
2008,01,02,08,06,6.70
2008,01,02,08,07,6.70
2008,01,02,08,08,5.70
2008,01,02,08,09,12.90
2008,01,02,08,10,7.10
2008,01,02,08,11,4.60
2008,01,02,08,12,5.10
2008,01,02,08,13,7.70
2008,01,02,08,14,6.80
2008,01,02,08,15,9.40
2008,01,02,08,16,5.30
2008,01,02,08,17,2.10
2008,01,02,08,18,3.40
2008,01,02,08,19,3.40
2008,01,02,08,20,4.10
2008,01,02,08,21,6.50
2008,01,02,08,22,4.80
2008,01,02,08,23,3.50
2008,01,02,08,24,4.30
2008,01,02,08,25,2.90
2008,01,02,08,26,10.50
2008,01,02,08,27,5.40
2008,01,02,08,28,2.10
2008,01,02,08,29,1.70
2008,01,02,08,30,1.50
2008,01,02,08,31,1.50
2008,01,02,08,32,3.90
2008,01,02,08,33,1.50
2008,01,02,08,34,2.10
2008,01,02,08,35,5.70
2008,01,02,08,36,1.90
2008,01,02,08,37,1.40
2008,01,02,08,38,2.10
2008,01,02,08,39,3.70
2008,01,02,08,40,3.60
2008,01,02,08,41,4.60
2008,01,02,08,42,7.40
2008,01,02,08,43,6.00
2008,01,02,08,44,3.40
2008,01,02,08,45,4.10
2008,01,02,08,46,4.60
2008,01,02,08,47,4.70
2008,01,02,08,48,3.90
2008,01,02,08,49,7.20
2008,01,02,08,50,5.00
2008,01,02,08,51,8.20
2008,01,02,08,52,3.30
2008,01,02,08,53,3.10
2008,01,02,08,54,7.80
2008,01,02,08,55,2.00
2008,01,02,08,56,2.60
2008,01,02,08,57,1.50
2008,01,02,08,58,3.80
2008,01,02,08,59,1.50
2008,01,02,09,00,1.60
2008,01,02,09,01,3.80
2008,01,02,09,02,3.70
2008,01,02,09,03,3.10
2008,01,02,09,04,5.40
2008,01,02,09,05,2.20
2008,01,02,09,06,2.50
2008,01,02,09,07,5.10
2008,01,02,09,08,3.40
2008,01,02,09,09,0.40
2008,01,02,09,10,3.40
2008,01,02,09,11,2.40
2008,01,02,09,12,0.60
2008,01,02,09,13,1.10
2008,01,02,09,14,0.70
2008,01,02,09,15,4.50
2008,01,02,09,16,1.50
2008,01,02,09,17,6.20
2008,01,02,09,18,4.40
2008,01,02,09,19,3.20
2008,01,02,09,20,1.50
2008,01,02,09,21,6.00
2008,01,02,09,22,1.00
2008,01,02,09,23,0.60
2008,01,02,09,24,0.80
2008,01,02,09,25,0.80
2008,01,02,09,26,1.90
2008,01,02,09,27,0.10
2008,01,02,09,28,0.90
2008,01,02,09,29,0.40
2008,01,02,09,30,3.80
2008,01,02,09,31,6.80
2008,01,02,09,32,2.70
2008,01,02,09,33,1.90
2008,01,02,09,34,1.90
2008,01,02,09,35,3.50
2008,01,02,09,36,1.70
2008,01,02,09,37,4.30
2008,01,02,09,38,4.40
2008,01,02,09,39,4.00
2008,01,02,09,40,2.80
2008,01,02,09,41,1.00
2008,01,02,09,42,4.70
2008,01,02,09,43,0.30
2008,01,02,09,44,1.30
2008,01,02,09,45,1.00
2008,01,02,09,46,3.10
2008,01,02,09,47,6.00
2008,01,02,09,48,4.60
2008,01,02,09,49,7.90
2008,01,02,09,50,3.30
2008,01,02,09,51,2.30
2008,01,02,09,52,0.50
2008,01,02,09,53,1.40
2008,01,02,09,54,0.70
2008,01,02,09,55,1.00
2008,01,02,09,56,2.40
2008,01,02,09,57,3.80
2008,01,02,09,58,4.20
2008,01,02,09,59,2.10
2008,01,02,10,00,1.50
2008,01,02,10,01,2.80
2008,01,02,10,02,0.20
2008,01,02,10,03,0.10
2008,01,02,10,04,0.20
2008,01,02,10,05,0.80
2008,01,02,10,06,0.50
2008,01,02,10,07,0.90
2008,01,02,10,08,1.60
2008,01,02,10,09,2.90
2008,01,02,10,10,3.90
2008,01,02,10,11,3.90
2008,01,02,10,12,2.00
2008,01,02,10,13,2.30
2008,01,02,10,14,1.80
2008,01,02,10,15,1.90
2008,01,02,10,16,2.00
2008,01,02,10,17,2.30
2008,01,02,10,18,3.10
2008,01,02,10,19,1.30
2008,01,02,10,20,1.60
2008,01,02,10,21,4.30
2008,01,02,10,22,7.70
2008,01,02,10,23,3.80
2008,01,02,10,24,2.90
2008,01,02,10,25,1.20
2008,01,02,10,26,5.70
2008,01,02,10,27,7.00
2008,01,02,10,28,2.90
2008,01,02,10,29,0.60
2008,01,02,10,30,0.00
2008,01,02,10,31,2.40
2008,01,02,10,32,3.40
2008,01,02,10,33,11.50
2008,01,02,10,34,4.00
2008,01,02,10,35,3.20
2008,01,02,10,36,3.10
2008,01,02,10,37,3.70
2008,01,02,10,38,4.50
2008,01,02,10,39,3.80
2008,01,02,10,40,4.50
2008,01,02,10,41,3.60
2008,01,02,10,42,2.20
2008,01,02,10,43,3.90
2008,01,02,10,44,2.40
2008,01,02,10,45,3.50
2008,01,02,10,46,2.00
2008,01,02,10,47,3.40
2008,01,02,10,48,1.70
2008,01,02,10,49,1.50
2008,01,02,10,50,4.50
2008,01,02,10,51,4.60
2008,01,02,10,52,4.30
2008,01,02,10,53,3.20
2008,01,02,10,54,3.50
2008,01,02,10,55,3.20
2008,01,02,10,56,1.70
2008,01,02,10,57,3.50
2008,01,02,10,58,2.60
2008,01,02,10,59,12.30
2008,01,02,11,00,10.10
2008,01,02,11,01,3.50
2008,01,02,11,02,2.10
2008,01,02,11,03,6.10
2008,01,02,11,04,6.40
2008,01,02,11,05,1.90
2008,01,02,11,06,1.60
2008,01,02,11,07,0.60
2008,01,02,11,08,0.20
2008,01,02,11,09,0.30
2008,01,02,11,10,0.00
2008,01,02,11,11,1.50
2008,01,02,11,12,4.40
2008,01,02,11,13,3.60
2008,01,02,11,14,1.00
2008,01,02,11,15,3.90
2008,01,02,11,16,1.50
2008,01,02,11,17,0.30
2008,01,02,11,18,0.30
2008,01,02,11,19,1.40
2008,01,02,11,20,1.20
2008,01,02,11,21,0.50
2008,01,02,11,22,1.50
2008,01,02,11,23,5.20
2008,01,02,11,24,6.80
2008,01,02,11,25,4.30
2008,01,02,11,26,3.10
2008,01,02,11,27,4.70
2008,01,02,11,28,4.40
2008,01,02,11,29,2.90
2008,01,02,11,30,3.10
2008,01,02,11,31,3.20
2008,01,02,11,32,2.50
2008,01,02,11,33,0.80
2008,01,02,11,34,0.70
2008,01,02,11,35,9.10
2008,01,02,11,36,3.50
2008,01,02,11,37,2.60
2008,01,02,11,38,5.10
2008,01,02,11,39,4.90
2008,01,02,11,40,7.50
2008,01,02,11,41,8.10
2008,01,02,11,42,5.20
2008,01,02,11,43,5.10
2008,01,02,11,44,3.10
2008,01,02,11,45,2.20
2008,01,02,11,46,0.60
2008,01,02,11,47,0.90
2008,01,02,11,48,3.10
2008,01,02,11,49,0.40
2008,01,02,11,50,2.60
2008,01,02,11,51,2.80
2008,01,02,11,52,7.80
2008,01,02,11,53,3.30
2008,01,02,11,54,2.80
2008,01,02,11,55,7.00
2008,01,02,11,56,5.30
2008,01,02,11,57,5.40
2008,01,02,11,58,4.60
2008,01,02,11,59,7.20
2008,01,02,12,00,3.80
2008,01,02,12,01,3.20
2008,01,02,12,02,3.90
2008,01,02,12,03,4.60
2008,01,02,12,04,3.30
2008,01,02,12,05,4.10
2008,01,02,12,06,5.80
2008,01,02,12,07,5.30
2008,01,02,12,08,4.40
2008,01,02,12,09,2.10
2008,01,02,12,10,7.70
2008,01,02,12,11,7.90
2008,01,02,12,12,7.10
2008,01,02,12,13,3.90
2008,01,02,12,14,9.30
2008,01,02,12,15,3.60
2008,01,02,12,16,2.40
2008,01,02,12,17,3.90
2008,01,02,12,18,1.70
2008,01,02,12,19,2.60
2008,01,02,12,20,6.60
2008,01,02,12,21,2.40
2008,01,02,12,22,0.60
2008,01,02,12,23,2.00
2008,01,02,12,24,2.80
2008,01,02,12,25,6.00
2008,01,02,12,26,3.80
2008,01,02,12,27,4.70
2008,01,02,12,28,5.70
2008,01,02,12,29,4.70
2008,01,02,12,30,3.10
2008,01,02,12,31,2.50
2008,01,02,12,32,5.10
2008,01,02,12,33,5.80
2008,01,02,12,34,6.30
2008,01,02,12,35,4.50
2008,01,02,12,36,3.10
2008,01,02,12,37,5.10
2008,01,02,12,38,1.70
2008,01,02,12,39,0.60
2008,01,02,12,40,1.80
2008,01,02,12,41,5.20
2008,01,02,12,42,5.90
2008,01,02,12,43,3.00
2008,01,02,12,44,1.70
2008,01,02,12,45,0.00
2008,01,02,12,46,2.70
2008,01,02,12,47,5.70
2008,01,02,12,48,2.20
2008,01,02,12,49,5.10
2008,01,02,12,50,6.70
2008,01,02,12,51,2.70
2008,01,02,12,52,1.90
2008,01,02,12,53,0.30
2008,01,02,12,54,1.80
2008,01,02,12,55,2.20
2008,01,02,12,56,6.00
2008,01,02,12,57,4.80
2008,01,02,12,58,3.00
2008,01,02,12,59,5.90
2008,01,02,13,00,4.30
2008,01,02,13,01,3.70
2008,01,02,13,02,3.60
2008,01,02,13,03,2.90
2008,01,02,13,04,8.70
2008,01,02,13,05,6.20
2008,01,02,13,06,2.60
2008,01,02,13,07,3.50
2008,01,02,13,08,4.00
2008,01,02,13,09,4.70
2008,01,02,13,10,2.10
2008,01,02,13,11,2.30
2008,01,02,13,12,6.50
2008,01,02,13,13,6.40
2008,01,02,13,14,1.60
2008,01,02,13,15,1.00
2008,01,02,13,16,8.00
2008,01,02,13,17,6.30
2008,01,02,13,18,4.80
2008,01,02,13,19,1.60
2008,01,02,13,20,6.70
2008,01,02,13,21,2.70
2008,01,02,13,22,3.00
2008,01,02,13,23,5.70
2008,01,02,13,24,6.30
2008,01,02,13,25,4.10
2008,01,02,13,26,6.00
2008,01,02,13,27,7.90
2008,01,02,13,28,4.90
2008,01,02,13,29,4.30
2008,01,02,13,30,3.60
2008,01,02,13,31,3.30
2008,01,02,13,32,3.10
2008,01,02,13,33,4.10
2008,01,02,13,34,2.40
2008,01,02,13,35,4.80
2008,01,02,13,36,0.90
2008,01,02,13,37,3.30
2008,01,02,13,38,7.60
2008,01,02,13,39,4.90
2008,01,02,13,40,2.40
2008,01,02,13,41,3.40
2008,01,02,13,42,7.10
2008,01,02,13,43,2.60
2008,01,02,13,44,3.40
2008,01,02,13,45,0.90
2008,01,02,13,46,3.80
2008,01,02,13,47,8.50
2008,01,02,13,48,5.80
2008,01,02,13,49,2.20
2008,01,02,13,50,3.10
2008,01,02,13,51,2.20
2008,01,02,13,52,1.70
2008,01,02,13,53,0.90
2008,01,02,13,54,0.60
2008,01,02,13,55,4.30
2008,01,02,13,56,2.40
2008,01,02,13,57,0.10
2008,01,02,13,58,0.30
2008,01,02,13,59,0.10
2008,01,02,14,00,4.30
2008,01,02,14,01,2.20
2008,01,02,14,02,7.60
2008,01,02,14,03,4.30
2008,01,02,14,04,5.20
2008,01,02,14,05,4.80
2008,01,02,14,06,4.30
2008,01,02,14,07,3.80
2008,01,02,14,08,2.30
2008,01,02,14,09,6.80
2008,01,02,14,10,5.50
2008,01,02,14,11,4.00
2008,01,02,14,12,2.70
2008,01,02,14,13,3.50
2008,01,02,14,14,1.50
2008,01,02,14,15,5.10
2008,01,02,14,16,4.70
2008,01,02,14,17,4.00
2008,01,02,14,18,0.20
2008,01,02,14,19,0.20
2008,01,02,14,20,1.90
2008,01,02,14,21,1.90
2008,01,02,14,22,0.00
2008,01,02,14,23,1.10
2008,01,02,14,24,0.60
2008,01,02,14,25,0.00
2008,01,02,14,26,1.60
2008,01,02,14,27,2.90
2008,01,02,14,28,0.50
2008,01,02,14,29,0.60
2008,01,02,14,30,0.20
2008,01,02,14,31,0.20
2008,01,02,14,32,0.10
2008,01,02,14,33,1.50
2008,01,02,14,34,1.60
2008,01,02,14,35,3.00
2008,01,02,14,36,2.70
2008,01,02,14,37,2.30
2008,01,02,14,38,1.80
2008,01,02,14,39,0.80
2008,01,02,14,40,0.10
2008,01,02,14,41,0.20
2008,01,02,14,42,0.00
2008,01,02,14,43,1.80
2008,01,02,14,44,1.90
2008,01,02,14,45,0.30
2008,01,02,14,46,0.00
2008,01,02,14,47,0.60
2008,01,02,14,48,0.20
2008,01,02,14,49,0.60
2008,01,02,14,50,0.10
2008,01,02,14,51,0.20
2008,01,02,14,52,0.00
2008,01,02,14,53,0.20
2008,01,02,14,54,0.50
2008,01,02,14,55,0.60
2008,01,02,14,56,0.00
2008,01,02,14,57,0.80
2008,01,02,14,58,0.30
2008,01,02,14,59,2.00
2008,01,02,15,00,4.10
2008,01,02,15,01,3.80
2008,01,02,15,02,4.40
2008,01,02,15,03,4.50
2008,01,02,15,04,4.70
2008,01,02,15,05,4.70
2008,01,02,15,06,4.50
2008,01,02,15,07,1.80
2008,01,02,15,08,3.00
2008,01,02,15,09,4.30
2008,01,02,15,10,4.30
2008,01,02,15,11,1.70
2008,01,02,15,12,2.80
2008,01,02,15,13,5.20
2008,01,02,15,14,4.50
2008,01,02,15,15,2.10
2008,01,02,15,16,6.50
2008,01,02,15,17,8.70
2008,01,02,15,18,4.10
2008,01,02,15,19,2.50
2008,01,02,15,20,2.70
2008,01,02,15,21,4.20
2008,01,02,15,22,3.30
2008,01,02,15,23,3.20
2008,01,02,15,24,5.10
2008,01,02,15,25,3.20
2008,01,02,15,26,4.20
2008,01,02,15,27,1.10
2008,01,02,15,28,2.80
2008,01,02,15,29,0.60
2008,01,02,15,30,0.10
2008,01,02,15,31,0.00
2008,01,02,15,32,0.10
2008,01,02,15,33,0.20
2008,01,02,15,34,0.00
2008,01,02,15,35,1.40
2008,01,02,15,36,2.10
2008,01,02,15,37,2.40
2008,01,02,15,38,7.10
2008,01,02,15,39,7.90
2008,01,02,15,40,7.80
2008,01,02,15,41,3.50
2008,01,02,15,42,0.90
2008,01,02,15,43,0.60
2008,01,02,15,44,2.60
2008,01,02,15,45,3.10
2008,01,02,15,46,1.30
2008,01,02,15,47,0.20
2008,01,02,15,48,0.40
2008,01,02,15,49,1.00
2008,01,02,15,50,0.20
2008,01,02,15,51,0.00
2008,01,02,15,52,0.00
2008,01,02,15,53,0.00
2008,01,02,15,54,0.00
2008,01,02,15,55,0.00
2008,01,02,15,56,0.00
2008,01,02,15,57,0.20
2008,01,02,15,58,0.00
2008,01,02,15,59,0.00
2008,01,02,16,00,0.20
2008,01,02,16,01,0.00
2008,01,02,16,02,0.10
2008,01,02,16,03,0.30
2008,01,02,16,04,0.30
2008,01,02,16,05,0.30
2008,01,02,16,06,0.20
2008,01,02,16,07,1.10
2008,01,02,16,08,0.50
2008,01,02,16,09,0.20
2008,01,02,16,10,0.00
2008,01,02,16,11,0.70
2008,01,02,16,12,0.60
2008,01,02,16,13,0.30
2008,01,02,16,14,0.00
2008,01,02,16,15,0.20
2008,01,02,16,16,1.70
2008,01,02,16,17,0.90
2008,01,02,16,18,1.70
2008,01,02,16,19,1.40
2008,01,02,16,20,0.50
2008,01,02,16,21,0.60
2008,01,02,16,22,0.20
2008,01,02,16,23,0.80
2008,01,02,16,24,0.10
2008,01,02,16,25,0.70
2008,01,02,16,26,0.70
2008,01,02,16,27,0.90
2008,01,02,16,28,0.60
2008,01,02,16,29,0.10
2008,01,02,16,30,0.90
2008,01,02,16,31,2.00
2008,01,02,16,32,0.90
2008,01,02,16,33,0.70
2008,01,02,16,34,1.00
2008,01,02,16,35,0.30
2008,01,02,16,36,0.10
2008,01,02,16,37,2.60
2008,01,02,16,38,3.90
2008,01,02,16,39,3.20
2008,01,02,16,40,3.50
2008,01,02,16,41,3.70
2008,01,02,16,42,2.90
2008,01,02,16,43,3.90
2008,01,02,16,44,5.10
2008,01,02,16,45,3.10
2008,01,02,16,46,5.20
2008,01,02,16,47,4.90
2008,01,02,16,48,2.00
2008,01,02,16,49,0.10
2008,01,02,16,50,0.00
2008,01,02,16,51,0.00
2008,01,02,16,52,2.80
2008,01,02,16,53,2.40
2008,01,02,16,54,0.50
2008,01,02,16,55,0.30
2008,01,02,16,56,0.10
2008,01,02,16,57,0.00
2008,01,02,16,58,0.30
2008,01,02,16,59,1.40
2008,01,02,17,00,1.00
2008,01,02,17,01,0.40
2008,01,02,17,02,0.10
2008,01,02,17,03,1.50
2008,01,02,17,04,1.20
2008,01,02,17,05,1.80
2008,01,02,17,06,1.80
2008,01,02,17,07,1.50
2008,01,02,17,08,0.20
2008,01,02,17,09,0.20
2008,01,02,17,10,1.50
2008,01,02,17,11,2.20
2008,01,02,17,12,0.80
2008,01,02,17,13,0.70
2008,01,02,17,14,1.10
2008,01,02,17,15,0.20
2008,01,02,17,16,0.00
2008,01,02,17,17,0.00
2008,01,02,17,18,0.00
2008,01,02,17,19,0.00
2008,01,02,17,20,0.00
2008,01,02,17,21,0.00
2008,01,02,17,22,0.00
2008,01,02,17,23,0.00
2008,01,02,17,24,0.00
2008,01,02,17,25,0.00
2008,01,02,17,26,0.20
2008,01,02,17,27,0.00
2008,01,02,17,28,0.00
2008,01,02,17,29,0.20
2008,01,02,17,30,0.60
2008,01,02,17,31,0.40
2008,01,02,17,32,1.10
2008,01,02,17,33,0.50
2008,01,02,17,34,0.30
2008,01,02,17,35,0.00
2008,01,02,17,36,0.00
2008,01,02,17,37,0.00
2008,01,02,17,38,0.90
2008,01,02,17,39,0.10
2008,01,02,17,40,0.20
2008,01,02,17,41,0.20
2008,01,02,17,42,0.90
2008,01,02,17,43,1.20
2008,01,02,17,44,2.00
2008,01,02,17,45,1.10
2008,01,02,17,46,1.20
2008,01,02,17,47,0.40
2008,01,02,17,48,0.00
2008,01,02,17,49,0.00
2008,01,02,17,50,0.00
2008,01,02,17,51,0.00
2008,01,02,17,52,0.00
2008,01,02,17,53,0.00
2008,01,02,17,54,0.00
2008,01,02,17,55,0.00
2008,01,02,17,56,0.50
2008,01,02,17,57,0.70
2008,01,02,17,58,1.10
2008,01,02,17,59,0.20
2008,01,02,18,00,0.20
2008,01,02,18,01,0.00
2008,01,02,18,02,0.10
2008,01,02,18,03,1.50
2008,01,02,18,04,2.00